Time,TemperatureF,DewpointF,PressureIn,WindDirection,WindDirectionDegrees,WindSpeedMPH,WindSpeedGustMPH,Humidity,HourlyPrecipIn,Conditions,Clouds,dailyrainin,SoftwareType,DateUTC
2013-01-08 08:30:00,19.5,17.6,30.26,ENE,68,0.0,4.0,92,0.00,,---,0.00,VWS V14.01,2013-01-08 13:30:00,
2013-01-08 09:22:00,28.0,25.2,30.25,ENE,62,2.0,3.0,89,0.00,,---,0.00,VWS V14.01,2013-01-08 14:22:00,
2013-01-08 09:23:00,28.3,25.5,30.25,ENE,62,2.0,3.0,89,0.00,,---,0.00,VWS V14.01,2013-01-08 14:23:00,
2013-01-08 09:24:00,28.5,25.4,30.25,ENE,62,1.0,4.0,88,0.00,,---,0.00,VWS V14.01,2013-01-08 14:24:00,
2013-01-08 09:29:00,29.9,26.0,30.25,North,5,0.0,13.0,85,0.00,,---,0.00,VWS V14.01,2013-01-08 14:29:00,
2013-01-08 09:34:00,30.9,26.4,30.25,North,5,3.0,7.0,83,0.00,,---,0.00,VWS V14.01,2013-01-08 14:34:00,
2013-01-08 09:39:00,31.9,26.7,30.25,NNE,20,7.0,13.0,81,0.00,,---,0.00,VWS V14.01,2013-01-08 14:39:00,
2013-01-08 09:44:00,33.0,27.2,30.25,NNE,16,6.0,17.0,79,0.00,,---,0.00,VWS V14.01,2013-01-08 14:44:00,
2013-01-08 09:49:00,33.6,27.2,30.25,NNE,17,4.0,17.0,77,0.00,,---,0.00,VWS V14.01,2013-01-08 14:49:00,
2013-01-08 09:54:00,34.2,27.4,30.25,North,5,5.0,17.0,76,0.00,,---,0.00,VWS V14.01,2013-01-08 14:54:00,
2013-01-08 09:59:00,34.8,27.4,30.26,North,360,0.0,17.0,74,0.00,,---,0.00,VWS V14.01,2013-01-08 14:59:00,
2013-01-08 10:04:00,35.3,27.5,30.25,NE,34,5.0,13.0,73,0.00,,---,0.00,VWS V14.01,2013-01-08 15:04:00,
2013-01-08 10:09:00,35.8,27.7,30.25,NNE,15,7.0,14.0,72,0.00,,---,0.00,VWS V14.01,2013-01-08 15:09:00,
2013-01-08 10:14:00,36.2,27.7,30.25,NE,36,11.0,14.0,71,0.00,,---,0.00,VWS V14.01,2013-01-08 15:14:00,
2013-01-08 10:19:00,36.5,27.7,30.25,NNE,31,4.0,14.0,70,0.00,,---,0.00,VWS V14.01,2013-01-08 15:19:00,
2013-01-08 10:24:00,36.8,27.6,30.25,NNE,22,2.0,14.0,69,0.00,,---,0.00,VWS V14.01,2013-01-08 15:24:00,
2013-01-08 10:29:00,37.0,27.8,30.25,NNE,24,0.0,18.0,69,0.00,,---,0.00,VWS V14.01,2013-01-08 15:29:00,
2013-01-08 10:34:00,37.3,27.7,30.24,NNE,15,4.0,7.0,68,0.00,,---,0.00,VWS V14.01,2013-01-08 15:34:00,
2013-01-08 10:39:00,37.5,27.5,30.24,NNE,28,4.0,19.0,67,0.00,,---,0.00,VWS V14.01,2013-01-08 15:39:00,
2013-01-08 10:45:00,37.6,27.6,30.23,NNE,15,6.0,20.0,67,0.00,,---,0.00,VWS V14.01,2013-01-08 15:45:00,
2013-01-08 10:50:00,37.8,27.5,30.23,NNE,17,4.0,23.0,66,0.00,,---,0.00,VWS V14.01,2013-01-08 15:50:00,
2013-01-08 10:55:00,38.2,27.9,30.23,NE,36,9.0,23.0,66,0.00,,---,0.00,VWS V14.01,2013-01-08 15:55:00,
2013-01-08 11:00:00,38.5,27.8,30.22,North,350,9.0,23.0,65,0.00,,---,0.00,VWS V14.01,2013-01-08 16:00:00,
2013-01-08 11:05:00,38.9,27.8,30.22,NNE,17,4.0,12.0,64,0.00,,---,0.00,VWS V14.01,2013-01-08 16:05:00,
2013-01-08 11:10:00,39.2,28.1,30.22,NE,49,0.0,12.0,64,0.00,,---,0.00,VWS V14.01,2013-01-08 16:10:00,
2013-01-08 11:15:00,39.5,28.0,30.22,NE,38,2.0,21.0,63,0.00,,---,0.00,VWS V14.01,2013-01-08 16:15:00,
2013-01-08 11:20:00,39.8,28.2,30.22,NE,41,4.0,21.0,63,0.00,,---,0.00,VWS V14.01,2013-01-08 16:20:00,
2013-01-08 11:25:00,40.2,27.8,30.22,NNW,336,4.0,21.0,61,0.00,,---,0.00,VWS V14.01,2013-01-08 16:25:00,
2013-01-08 11:30:00,40.5,28.1,30.21,NNW,341,4.0,21.0,61,0.00,,---,0.00,VWS V14.01,2013-01-08 16:30:00,
2013-01-08 11:35:00,40.7,27.9,30.21,North,5,6.0,13.0,60,0.00,,---,0.00,VWS V14.01,2013-01-08 16:35:00,
2013-01-08 11:40:00,41.1,27.9,30.21,NNW,345,13.0,19.0,59,0.01,,---,0.01,VWS V14.01,2013-01-08 16:40:00,
2013-01-08 11:45:00,41.3,27.6,30.21,NNE,16,8.0,23.0,58,0.01,,---,0.01,VWS V14.01,2013-01-08 16:45:00,
2013-01-08 11:50:00,41.5,27.8,30.21,NNW,348,4.0,23.0,58,0.01,,---,0.01,VWS V14.01,2013-01-08 16:50:00,
2013-01-08 11:55:00,41.8,28.1,30.21,NNE,16,10.0,23.0,58,0.01,,---,0.01,VWS V14.01,2013-01-08 16:55:00,
2013-01-08 12:00:00,42.0,27.9,30.20,North,5,2.0,23.0,57,0.01,,---,0.01,VWS V14.01,2013-01-08 17:00:00,
2013-01-08 12:05:00,42.2,28.1,30.21,NNE,28,7.0,15.0,57,0.01,,---,0.01,VWS V14.01,2013-01-08 17:05:00,
2013-01-08 12:10:00,42.3,28.2,30.20,NNE,12,9.0,17.0,57,0.01,,---,0.01,VWS V14.01,2013-01-08 17:10:00,
2013-01-08 12:15:00,42.5,27.9,30.20,NNW,329,10.0,19.0,56,0.01,,---,0.01,VWS V14.01,2013-01-08 17:15:00,
2013-01-08 12:20:00,42.7,28.1,30.20,NNW,332,3.0,19.0,56,0.01,,---,0.01,VWS V14.01,2013-01-08 17:20:00,
2013-01-08 12:25:00,42.9,27.9,30.20,North,10,6.0,19.0,55,0.01,,---,0.01,VWS V14.01,2013-01-08 17:25:00,
2013-01-08 12:30:00,43.1,28.0,30.20,NNE,17,2.0,19.0,55,0.01,,---,0.01,VWS V14.01,2013-01-08 17:30:00,
2013-01-08 12:35:00,43.4,28.3,30.19,NNE,19,6.0,11.0,55,0.02,,---,0.02,VWS V14.01,2013-01-08 17:35:00,
2013-01-08 12:40:00,43.5,28.0,30.20,NNE,18,5.0,11.0,54,0.02,,---,0.02,VWS V14.01,2013-01-08 17:40:00,
2013-01-08 12:45:00,43.6,27.6,30.19,NE,44,6.0,15.0,53,0.02,,---,0.02,VWS V14.01,2013-01-08 17:45:00,
2013-01-08 12:50:00,43.4,27.4,30.20,NNE,20,2.0,17.0,53,0.02,,---,0.02,VWS V14.01,2013-01-08 17:50:00,
2013-01-08 12:55:00,43.3,27.3,30.19,NNE,32,0.0,17.0,53,0.02,,---,0.02,VWS V14.01,2013-01-08 17:55:00,
2013-01-08 13:00:00,43.3,27.3,30.20,North,11,14.0,19.0,53,0.02,,---,0.02,VWS V14.01,2013-01-08 18:00:00,
2013-01-08 13:05:00,43.4,27.4,30.20,North,10,2.0,14.0,53,0.01,,---,0.02,VWS V14.01,2013-01-08 18:05:00,
2013-01-08 13:10:00,43.5,28.0,30.19,North,11,2.0,14.0,54,0.01,,---,0.02,VWS V14.01,2013-01-08 18:10:00,
2013-01-08 13:15:00,43.7,28.2,30.19,NNE,28,1.0,14.0,54,0.01,,---,0.02,VWS V14.01,2013-01-08 18:15:00,
2013-01-08 13:20:00,43.7,28.2,30.19,North,5,6.0,15.0,54,0.01,,---,0.02,VWS V14.01,2013-01-08 18:20:00,
2013-01-08 13:25:00,43.6,27.6,30.19,NNE,28,2.0,15.0,53,0.02,,---,0.03,VWS V14.01,2013-01-08 18:25:00,
2013-01-08 13:31:00,43.5,27.5,30.19,North,355,0.0,15.0,53,0.02,,---,0.03,VWS V14.01,2013-01-08 18:31:00,
2013-01-08 13:36:00,43.4,27.0,30.19,NNE,24,13.0,17.0,52,0.02,,---,0.03,VWS V14.01,2013-01-08 18:36:00,
2013-01-08 13:41:00,43.4,27.0,30.19,NNE,21,6.0,17.0,52,0.02,,---,0.03,VWS V14.01,2013-01-08 18:41:00,
2013-01-08 13:46:00,43.3,26.9,30.19,NNE,20,17.0,17.0,52,0.02,,---,0.03,VWS V14.01,2013-01-08 18:46:00,
2013-01-08 13:51:00,43.4,27.0,30.19,North,10,2.0,17.0,52,0.02,,---,0.03,VWS V14.01,2013-01-08 18:51:00,
2013-01-08 13:56:00,43.4,27.0,30.19,NNE,19,14.0,17.0,52,0.02,,---,0.03,VWS V14.01,2013-01-08 18:56:00,
2013-01-08 14:01:00,43.4,27.0,30.19,NNE,15,4.0,17.0,52,0.02,,---,0.03,VWS V14.01,2013-01-08 19:01:00,
2013-01-08 14:06:00,43.5,27.1,30.19,NNE,15,2.0,11.0,52,0.01,,---,0.03,VWS V14.01,2013-01-08 19:06:00,
2013-01-08 14:11:00,43.5,27.1,30.20,NNW,331,11.0,18.0,52,0.01,,---,0.03,VWS V14.01,2013-01-08 19:11:00,
2013-01-08 14:16:00,43.5,27.1,30.20,NNE,15,19.0,19.0,52,0.01,,---,0.03,VWS V14.01,2013-01-08 19:16:00,
2013-01-08 14:21:00,43.5,27.1,30.20,North,351,4.0,19.0,52,0.01,,---,0.03,VWS V14.01,2013-01-08 19:21:00,
2013-01-08 14:26:00,43.7,27.2,30.20,NNW,347,5.0,19.0,52,0.01,,---,0.03,VWS V14.01,2013-01-08 19:26:00,
2013-01-08 14:31:00,43.7,26.8,30.21,NNE,13,2.0,19.0,51,0.01,,---,0.03,VWS V14.01,2013-01-08 19:31:00,
2013-01-08 14:36:00,43.7,27.2,30.21,NNE,32,4.0,17.0,52,0.00,,---,0.03,VWS V14.01,2013-01-08 19:36:00,
2013-01-08 14:41:00,43.7,26.8,30.21,NNE,23,2.0,19.0,51,0.00,,---,0.03,VWS V14.01,2013-01-08 19:41:00,
2013-01-08 14:46:00,43.6,27.1,30.21,NNE,23,2.0,19.0,52,0.00,,---,0.03,VWS V14.01,2013-01-08 19:46:00,
2013-01-08 14:51:00,43.6,26.7,30.21,NNE,12,5.0,19.0,51,0.00,,---,0.03,VWS V14.01,2013-01-08 19:51:00,
2013-01-08 14:56:00,43.6,27.1,30.21,North,10,11.0,19.0,52,0.00,,---,0.03,VWS V14.01,2013-01-08 19:56:00,
2013-01-08 15:01:00,43.6,27.1,30.21,North,351,2.0,19.0,52,0.00,,---,0.03,VWS V14.01,2013-01-08 20:01:00,
2013-01-08 15:06:00,43.5,27.1,30.21,NNW,335,4.0,17.0,52,0.01,,---,0.04,VWS V14.01,2013-01-08 20:06:00,
2013-01-08 15:11:00,43.3,26.9,30.21,NNE,20,7.0,17.0,52,0.01,,---,0.04,VWS V14.01,2013-01-08 20:11:00,
2013-01-08 15:16:00,43.1,27.1,30.21,NNE,18,4.0,17.0,53,0.01,,---,0.04,VWS V14.01,2013-01-08 20:16:00,
2013-01-08 15:21:00,42.9,27.0,30.21,NE,38,13.0,17.0,53,0.01,,---,0.04,VWS V14.01,2013-01-08 20:21:00,
2013-01-08 15:26:00,42.8,26.9,30.21,NE,36,3.0,17.0,53,0.01,,---,0.04,VWS V14.01,2013-01-08 20:26:00,
2013-01-08 15:31:00,42.7,26.8,30.21,NNE,33,6.0,17.0,53,0.01,,---,0.04,VWS V14.01,2013-01-08 20:31:00,
2013-01-08 15:36:00,42.6,27.1,30.21,NNE,33,0.0,9.0,54,0.01,,---,0.04,VWS V14.01,2013-01-08 20:36:00,
2013-01-08 15:41:00,42.6,27.1,30.22,NNE,27,0.0,12.0,54,0.01,,---,0.04,VWS V14.01,2013-01-08 20:41:00,
2013-01-08 15:46:00,42.5,27.0,30.22,NNE,27,2.0,12.0,54,0.01,,---,0.04,VWS V14.01,2013-01-08 20:46:00,
2013-01-08 15:51:00,42.4,27.0,30.22,NNE,27,4.0,12.0,54,0.01,,---,0.04,VWS V14.01,2013-01-08 20:51:00,
2013-01-08 15:56:00,42.3,27.3,30.22,NNE,27,2.0,13.0,55,0.01,,---,0.04,VWS V14.01,2013-01-08 20:56:00,
2013-01-08 16:01:00,42.0,27.0,30.22,NNE,27,2.0,13.0,55,0.01,,---,0.04,VWS V14.01,2013-01-08 21:01:00,
2013-01-08 16:06:00,41.7,26.7,30.21,NNE,27,3.0,5.0,55,0.01,,---,0.04,VWS V14.01,2013-01-08 21:06:00,
2013-01-08 16:11:00,41.4,26.9,30.22,NNE,27,4.0,6.0,56,0.01,,---,0.04,VWS V14.01,2013-01-08 21:11:00,
2013-01-08 16:16:00,41.1,27.0,30.22,NNE,27,2.0,7.0,57,0.01,,---,0.04,VWS V14.01,2013-01-08 21:16:00,
2013-01-08 16:22:00,40.6,27.0,30.21,NNE,27,2.0,10.0,58,0.01,,---,0.04,VWS V14.01,2013-01-08 21:22:00,
2013-01-08 16:27:00,40.4,26.8,30.22,NNE,27,6.0,10.0,58,0.01,,---,0.04,VWS V14.01,2013-01-08 21:27:00,
2013-01-08 16:32:00,40.3,26.7,30.22,NNE,27,0.0,10.0,58,0.01,,---,0.04,VWS V14.01,2013-01-08 21:32:00,
2013-01-08 16:37:00,40.0,26.8,30.22,NNE,27,0.0,3.0,59,0.00,,---,0.04,VWS V14.01,2013-01-08 21:37:00,
2013-01-08 16:42:00,39.7,26.6,30.22,NNE,27,0.0,3.0,59,0.00,,---,0.04,VWS V14.01,2013-01-08 21:42:00,
2013-01-08 16:47:00,39.4,26.7,30.22,NNE,27,0.0,3.0,60,0.00,,---,0.04,VWS V14.01,2013-01-08 21:47:00,
2013-01-08 16:52:00,39.0,26.3,30.23,NNE,27,0.0,3.0,60,0.00,,---,0.04,VWS V14.01,2013-01-08 21:52:00,
2013-01-08 16:57:00,38.6,26.3,30.22,NNE,27,0.0,3.0,61,0.00,,---,0.04,VWS V14.01,2013-01-08 21:57:00,
2013-01-08 17:02:00,38.3,26.4,30.22,NNE,27,0.0,3.0,62,0.00,,---,0.04,VWS V14.01,2013-01-08 22:02:00,
2013-01-08 17:07:00,37.9,26.1,30.23,NNE,27,0.0,0.0,62,0.00,,---,0.04,VWS V14.01,2013-01-08 22:07:00,
2013-01-08 17:12:00,37.4,26.0,30.23,NNE,27,0.0,0.0,63,0.00,,---,0.04,VWS V14.01,2013-01-08 22:12:00,
2013-01-08 17:17:00,37.0,26.0,30.23,NNE,27,0.0,1.0,64,0.00,,---,0.04,VWS V14.01,2013-01-08 22:17:00,
2013-01-08 17:22:00,36.7,25.7,30.23,NNE,26,0.0,1.0,64,0.00,,---,0.04,VWS V14.01,2013-01-08 22:22:00,
2013-01-08 17:27:00,36.5,25.9,30.23,NNE,27,0.0,1.0,65,0.00,,---,0.04,VWS V14.01,2013-01-08 22:27:00,
2013-01-08 17:32:00,36.1,25.9,30.23,NNE,27,0.0,2.0,66,0.00,,---,0.04,VWS V14.01,2013-01-08 22:32:00,
2013-01-08 17:37:00,35.6,25.7,30.24,NNE,27,0.0,0.0,67,0.00,,---,0.04,VWS V14.01,2013-01-08 22:37:00,
2013-01-08 17:42:00,35.0,25.5,30.24,NNE,26,0.0,0.0,68,0.00,,---,0.04,VWS V14.01,2013-01-08 22:42:00,
2013-01-08 17:47:00,34.4,25.3,30.25,NNE,26,0.0,0.0,69,0.00,,---,0.04,VWS V14.01,2013-01-08 22:47:00,
2013-01-08 17:52:00,33.9,25.2,30.24,NNE,26,0.0,0.0,70,0.00,,---,0.04,VWS V14.01,2013-01-08 22:52:00,
2013-01-08 17:57:00,33.4,25.0,30.24,NNE,26,0.0,0.0,71,0.00,,---,0.04,VWS V14.01,2013-01-08 22:57:00,
2013-01-08 18:02:00,33.0,25.0,30.25,NNE,27,0.0,0.0,72,0.00,,---,0.04,VWS V14.01,2013-01-08 23:02:00,
2013-01-08 18:07:00,32.6,24.9,30.25,NNE,26,0.0,2.0,73,0.00,,---,0.04,VWS V14.01,2013-01-08 23:07:00,
2013-01-08 18:12:00,32.4,24.7,30.25,NNE,27,0.0,2.0,73,0.00,,---,0.04,VWS V14.01,2013-01-08 23:12:00,
2013-01-08 18:17:00,31.9,24.9,30.25,NNE,27,0.0,2.0,75,0.00,,---,0.04,VWS V14.01,2013-01-08 23:17:00,
2013-01-08 18:23:00,31.5,24.8,30.25,NNE,26,0.0,2.0,76,0.00,,---,0.04,VWS V14.01,2013-01-08 23:23:00,
2013-01-08 18:28:00,31.2,24.8,30.25,NNE,26,0.0,2.0,77,0.00,,---,0.04,VWS V14.01,2013-01-08 23:28:00,
2013-01-08 18:33:00,30.9,24.5,30.26,NNE,27,0.0,0.0,77,0.00,,---,0.04,VWS V14.01,2013-01-08 23:33:00,
2013-01-08 18:38:00,30.5,24.5,30.26,NNE,27,0.0,0.0,78,0.00,,---,0.04,VWS V14.01,2013-01-08 23:38:00,
2013-01-08 18:43:00,30.1,24.4,30.26,NNE,26,0.0,0.0,79,0.00,,---,0.04,VWS V14.01,2013-01-08 23:43:00,
2013-01-08 18:48:00,29.8,24.4,30.27,NNE,27,0.0,0.0,80,0.00,,---,0.04,VWS V14.01,2013-01-08 23:48:00,
2013-01-08 18:53:00,29.4,24.0,30.27,NNE,26,0.0,0.0,80,0.00,,---,0.04,VWS V14.01,2013-01-08 23:53:00,
2013-01-08 18:58:00,29.1,24.0,30.27,NNE,27,0.0,0.0,81,0.00,,---,0.04,VWS V14.01,2013-01-08 23:58:00,
2013-01-08 19:03:00,29.0,24.2,30.26,NNE,27,0.0,0.0,82,0.00,,---,0.04,VWS V14.01,2013-01-09 00:03:00,
2013-01-08 19:08:00,28.9,24.4,30.27,NNE,26,0.0,0.0,83,0.00,,---,0.04,VWS V14.01,2013-01-09 00:08:00,
2013-01-08 19:13:00,28.7,24.2,30.27,NNE,27,5.0,5.0,83,0.00,,---,0.04,VWS V14.01,2013-01-09 00:13:00,
2013-01-08 19:18:00,28.4,23.9,30.28,NNE,27,0.0,5.0,83,0.00,,---,0.04,VWS V14.01,2013-01-09 00:18:00,
2013-01-08 19:23:00,28.1,23.9,30.28,NNE,27,0.0,5.0,84,0.00,,---,0.04,VWS V14.01,2013-01-09 00:23:00,
2013-01-08 19:28:00,28.0,24.1,30.28,NNE,27,2.0,5.0,85,0.00,,---,0.04,VWS V14.01,2013-01-09 00:28:00,
2013-01-08 19:33:00,28.0,24.1,30.27,NNE,27,0.0,0.0,85,0.00,,---,0.04,VWS V14.01,2013-01-09 00:33:00,
2013-01-08 19:38:00,28.0,24.1,30.27,NNE,27,0.0,2.0,85,0.00,,---,0.04,VWS V14.01,2013-01-09 00:38:00,
2013-01-08 19:43:00,28.0,23.8,30.27,NNE,27,0.0,2.0,84,0.00,,---,0.04,VWS V14.01,2013-01-09 00:43:00,
2013-01-08 19:48:00,27.9,23.7,30.28,NNE,27,0.0,2.0,84,0.00,,---,0.04,VWS V14.01,2013-01-09 00:48:00,
2013-01-08 19:53:00,27.7,23.8,30.28,NNE,27,2.0,4.0,85,0.00,,---,0.04,VWS V14.01,2013-01-09 00:53:00,
2013-01-08 19:58:00,27.4,23.5,30.28,NNE,27,0.0,4.0,85,0.00,,---,0.04,VWS V14.01,2013-01-09 00:58:00,
2013-01-08 20:03:00,27.2,23.3,30.29,NNE,27,0.0,0.0,85,0.00,,---,0.04,VWS V14.01,2013-01-09 01:03:00,
2013-01-08 20:08:00,27.1,23.5,30.29,NNE,27,2.0,4.0,86,0.00,,---,0.04,VWS V14.01,2013-01-09 01:08:00,
2013-01-08 20:13:00,27.1,23.5,30.29,NNE,27,0.0,4.0,86,0.00,,---,0.04,VWS V14.01,2013-01-09 01:13:00,
2013-01-08 20:18:00,26.9,23.3,30.29,NNE,27,0.0,4.0,86,0.00,,---,0.04,VWS V14.01,2013-01-09 01:18:00,
2013-01-08 20:23:00,26.7,23.1,30.29,NNE,27,0.0,4.0,86,0.00,,---,0.04,VWS V14.01,2013-01-09 01:23:00,
2013-01-08 20:28:00,26.5,23.2,30.29,NNE,27,0.0,4.0,87,0.00,,---,0.04,VWS V14.01,2013-01-09 01:28:00,
2013-01-08 20:33:00,26.4,23.1,30.29,NNE,27,0.0,0.0,87,0.00,,---,0.04,VWS V14.01,2013-01-09 01:33:00,
2013-01-08 20:38:00,26.2,22.9,30.29,NNE,27,0.0,0.0,87,0.00,,---,0.04,VWS V14.01,2013-01-09 01:38:00,
2013-01-08 20:43:00,26.2,22.9,30.29,NNE,27,0.0,0.0,87,0.00,,---,0.04,VWS V14.01,2013-01-09 01:43:00,
2013-01-08 20:48:00,26.1,23.0,30.29,NNE,27,0.0,2.0,88,0.00,,---,0.04,VWS V14.01,2013-01-09 01:48:00,
2013-01-08 20:54:00,26.0,22.9,30.28,NNE,27,0.0,2.0,88,0.00,,---,0.04,VWS V14.01,2013-01-09 01:54:00,
2013-01-08 20:59:00,25.9,22.8,30.29,NNE,27,0.0,2.0,88,0.00,,---,0.04,VWS V14.01,2013-01-09 01:59:00,
2013-01-08 21:04:00,25.8,22.7,30.29,NNE,27,0.0,0.0,88,0.00,,---,0.04,VWS V14.01,2013-01-09 02:04:00,
2013-01-08 21:09:00,25.8,23.0,30.29,NNE,27,1.0,4.0,89,0.00,,---,0.04,VWS V14.01,2013-01-09 02:09:00,
2013-01-08 21:14:00,25.9,23.1,30.29,NNE,27,0.0,4.0,89,0.00,,---,0.04,VWS V14.01,2013-01-09 02:14:00,
2013-01-08 21:19:00,26.0,22.9,30.29,NNE,27,2.0,4.0,88,0.00,,---,0.04,VWS V14.01,2013-01-09 02:19:00,
2013-01-08 21:24:00,26.0,22.9,30.28,NNE,27,0.0,6.0,88,0.00,,---,0.04,VWS V14.01,2013-01-09 02:24:00,
2013-01-08 21:29:00,26.0,22.9,30.29,NNE,27,0.0,6.0,88,0.00,,---,0.04,VWS V14.01,2013-01-09 02:29:00,
2013-01-08 21:34:00,25.9,22.6,30.29,NNE,27,4.0,4.0,87,0.00,,---,0.04,VWS V14.01,2013-01-09 02:34:00,
2013-01-08 21:39:00,26.1,23.0,30.28,NNE,27,2.0,6.0,88,0.00,,---,0.04,VWS V14.01,2013-01-09 02:39:00,
2013-01-08 21:44:00,26.1,23.0,30.28,NNE,27,0.0,6.0,88,0.00,,---,0.04,VWS V14.01,2013-01-09 02:44:00,
2013-01-08 21:49:00,26.1,22.8,30.29,NNE,27,0.0,6.0,87,0.00,,---,0.04,VWS V14.01,2013-01-09 02:49:00,
2013-01-08 21:54:00,26.1,23.0,30.29,NNE,27,0.0,6.0,88,0.00,,---,0.04,VWS V14.01,2013-01-09 02:54:00,
2013-01-08 21:59:00,26.0,22.9,30.29,NNE,27,0.0,6.0,88,0.00,,---,0.04,VWS V14.01,2013-01-09 02:59:00,
2013-01-08 22:04:00,26.0,22.9,30.28,NNE,27,0.0,0.0,88,0.00,,---,0.04,VWS V14.01,2013-01-09 03:04:00,
2013-01-08 22:09:00,25.9,22.8,30.28,NNE,27,0.0,0.0,88,0.00,,---,0.04,VWS V14.01,2013-01-09 03:09:00,
2013-01-08 22:14:00,25.8,22.7,30.28,NNE,27,0.0,0.0,88,0.00,,---,0.04,VWS V14.01,2013-01-09 03:14:00,
2013-01-08 22:19:00,25.8,23.0,30.28,NNE,27,0.0,0.0,89,0.00,,---,0.04,VWS V14.01,2013-01-09 03:19:00,
2013-01-08 22:24:00,25.8,23.0,30.28,NNE,27,0.0,0.0,89,0.00,,---,0.04,VWS V14.01,2013-01-09 03:24:00,
2013-01-08 22:29:00,25.8,23.0,30.28,NNE,27,0.0,0.0,89,0.00,,---,0.04,VWS V14.01,2013-01-09 03:29:00,
2013-01-08 22:34:00,25.8,23.0,30.29,NNE,27,0.0,0.0,89,0.00,,---,0.04,VWS V14.01,2013-01-09 03:34:00,
2013-01-08 22:39:00,25.8,23.0,30.28,NNE,27,0.0,0.0,89,0.00,,---,0.04,VWS V14.01,2013-01-09 03:39:00,
2013-01-08 22:44:00,25.8,23.0,30.28,NNE,27,0.0,0.0,89,0.00,,---,0.04,VWS V14.01,2013-01-09 03:44:00,
2013-01-08 22:50:00,25.8,23.0,30.28,NNE,27,0.0,0.0,89,0.00,,---,0.04,VWS V14.01,2013-01-09 03:50:00,
2013-01-08 22:55:00,25.7,22.6,30.29,NNE,27,0.0,0.0,88,0.00,,---,0.04,VWS V14.01,2013-01-09 03:55:00,
2013-01-08 23:00:00,25.6,22.8,30.29,NNE,27,0.0,0.0,89,0.00,,---,0.04,VWS V14.01,2013-01-09 04:00:00,
2013-01-08 23:05:00,25.6,22.8,30.29,NNE,27,0.0,0.0,89,0.00,,---,0.04,VWS V14.01,2013-01-09 04:05:00,
2013-01-08 23:10:00,25.5,22.7,30.30,NNE,27,0.0,0.0,89,0.00,,---,0.04,VWS V14.01,2013-01-09 04:10:00,
2013-01-08 23:15:00,25.4,22.6,30.30,NNE,27,0.0,0.0,89,0.00,,---,0.04,VWS V14.01,2013-01-09 04:15:00,
2013-01-08 23:20:00,25.4,22.6,30.30,NNE,27,0.0,0.0,89,0.00,,---,0.04,VWS V14.01,2013-01-09 04:20:00,
2013-01-08 23:25:00,25.4,22.6,30.30,NNE,27,0.0,0.0,89,0.00,,---,0.04,VWS V14.01,2013-01-09 04:25:00,
2013-01-08 23:30:00,25.4,22.6,30.30,NNE,27,0.0,0.0,89,0.00,,---,0.04,VWS V14.01,2013-01-09 04:30:00,
2013-01-08 23:35:00,25.4,22.6,30.30,NNE,27,0.0,0.0,89,0.00,,---,0.04,VWS V14.01,2013-01-09 04:35:00,
2013-01-08 23:40:00,25.3,22.5,30.31,NNE,27,0.0,0.0,89,0.00,,---,0.04,VWS V14.01,2013-01-09 04:40:00,
2013-01-08 23:45:00,25.2,22.4,30.30,NNE,27,0.0,0.0,89,0.00,,---,0.04,VWS V14.01,2013-01-09 04:45:00,
2013-01-08 23:50:00,25.2,22.4,30.30,NNE,27,0.0,0.0,89,0.00,,---,0.04,VWS V14.01,2013-01-09 04:50:00,
2013-01-08 23:55:00,25.1,22.3,30.31,NNE,27,0.0,0.0,89,0.00,,---,0.04,VWS V14.01,2013-01-09 04:55:00,